User: anonymous   Login
Location: North Smoke Tower Site
(30.5430°N, 82.3390°W)
Time: 00:50:23
(UTC-04:00)
Language:

Cosmos 1980 Rocket - Orbit

View from above orbital plane
View from above orbital plane
View from above satellite
View from above satellite

Ground track
Ground track

The orbit data is extracted from the following two-line orbital elements,

1 19650U 88102B   15115.79163588 -.00000201  00000-0 -77963-4 0  9991
2 19650 071.0004 222.2961 0016420 291.0352 068.9015 14.15715297365111
Epoch (UTC): 25 April 2015 18:59:57
Eccentricity: 0.0016420
inclination: 71.0004°
perigee height: 828 km
apogee height: 852 km
right ascension of ascending node: 222.2961°
argument of perigee: 291.0352°
revolutions per day: 14.15715297
mean anomaly at epoch: 68.9015°
orbit number at epoch: 36511

The dashed part of the orbit path shows where the satellite is in the earth's shadow,  

DLR